sat.trackr.live / text

‹ back to catalog

QIANFAN-139

NORAD 69085 · 2026-104N

PAYLOAD ACTIVE UNKNOWN

§ Identity

Operator
Country
PRC
Launch date
2026-05-12
Launch site
TAISC
Launch vehicle
Mass (kg)
RCS (m²)

External: N2YO · Heavens-Above · Gunter

§ Orbital elements

Epoch: 2026-05-24T18:13:28.633152Z

Period
101.52 min
Inclination
88.9863°
Eccentricity
0.0016954
Mean motion
14.18380591 rev/d
Perigee alt
818.6 km
Apogee alt
843.1 km
Semi-major
7,209.0 km
B*
-9.8525e-1
RAAN
344.2949°
Arg perigee
218.3690°
Mean anomaly
141.6294°
Rev number
176

§ Raw data

QIANFAN-1391 69085U 26104N   26144.75935918 -.01891271  00000+0 -98525+0 0  99932 69085  88.9863 344.2949 0016954 218.3690 141.6294 14.18380591  1762

JSON: /api/v1/satellites/69085 · /tle

For live sub-satellite position, see the globe view (requires WebGL).

§ Visibility from observer

Set your observer location to see the next 7 days of passes ≥ 10°. The values pass through the URL so the page stays shareable.

No JS? Fill the form by hand. The geolocation button needs JavaScript.